Muskegon, MI

5:24 AM EDT on June 27, 2017 (GMT -0400)
Muskegon County

Weather History for KMKG - August, 2014

Change the Weather History Date:

Saturday, August 9, 2014

  Actual Average Record
Temperature  
Mean Temperature 70 °F 71 °F  
Max Temperature 83 °F 80 °F 91 °F (1970)
Min Temperature 57 °F 62 °F 40 °F (1964)
Degree Days  
Heating Degree Days 0 0  
Month to date heating degree days 0 0  
Since 1 June heating degree days 62 77  
Since 1 July heating degree days 31 11  
Cooling Degree Days 5 6  
Month to date cooling degree days 45 54  
Year to date cooling degree days 271 390  
Since 1 June cooling degree days 254 361  
Growing Degree Days 20 (Base 50)    
Moisture  
Dew Point 55 °F    
Average Humidity 62    
Maximum Humidity 86    
Minimum Humidity 37    
Precipitation  
Precipitation 0.00 in 0.11 in 0.83 in (1960)
Month to date precipitation 0.03 0.94  
Year to date precipitation 24.08 18.13  
Snow  
Snow 0.00 in 0.00 in - ()
Month to date snowfall 0.0 0.0  
Since 1 June snowfall 0.0 0.0  
Since 1 July snowfall 0.0 0.0  
Snow Depth 0.00 in    
Sea Level Pressure  
Sea Level Pressure 30.12 in    
Wind  
Wind Speed 7 mph (ENE)    
Max Wind Speed 18 mph    
Max Gust Speed 22 mph    
Visibility 10 miles    
Events      
T = Trace of Precipitation, MM = Missing Value Source: NWS Daily Summary

Daily Weather History Graph

Daily Weather History Graph

Search for Another Location

Airport or City:

Trip Planner

Search our weather history database for the weather conditions in past years. The results will help you decide how hot, cold, wet, or windy it might be!

Date:

Astronomy

Aug. 09, 2014 Rise Set
Actual Time 6:43 AM EDT 8:56 PM EDT
Civil Twilight 6:12 AM EDT 9:27 PM EDT
Nautical Twilight 5:33 AM EDT 10:06 PM EDT
Astronomical Twilight 4:50 AM EDT 10:48 PM EDT
Moon 7:56 PM EDT (8/9) 5:23 AM EDT (8/9)
Length of Visible Light 15h 14m
Length of Day
14h 12m
Waxing Gibbous, 98% of the Moon is Illuminated
Aug 9
Waxing Gibbous
Aug 10
Full
Aug 17
Last Quarter
Aug 25
New
Sep 2
First Quarter

Hourly Weather History & Observations

Time (EDT) Temp. Heat Index Dew Point Humidity Pressure Visibility Wind Dir Wind Speed Gust Speed Precip Events Conditions
1:55 AM 62.1 °F - 55.0 °F 78% 30.13 in 10.0 mi East 4.6 mph - N/A   Clear
2:55 AM 62.1 °F - 55.0 °F 78% 30.13 in 10.0 mi ENE 4.6 mph - N/A   Clear
3:55 AM 60.1 °F - 54.0 °F 80% 30.13 in 10.0 mi ENE 4.6 mph - N/A   Clear
4:55 AM 60.1 °F - 55.0 °F 83% 30.13 in 10.0 mi ENE 6.9 mph - N/A   Clear
5:55 AM 57.9 °F - 53.1 °F 84% 30.13 in 10.0 mi ENE 3.5 mph - N/A   Clear
6:55 AM 57.9 °F - 52.0 °F 81% 30.15 in 10.0 mi Calm Calm - N/A   Clear
7:55 AM 60.1 °F - 54.0 °F 80% 30.16 in 10.0 mi East 6.9 mph - N/A   Scattered Clouds
8:55 AM 63.0 °F - 55.0 °F 75% 30.14 in 10.0 mi East 6.9 mph - N/A   Scattered Clouds
9:55 AM 68.0 °F - 57.0 °F 68% 30.15 in 10.0 mi East 6.9 mph - N/A   Partly Cloudy
10:55 AM 72.0 °F - 57.9 °F 61% 30.16 in 10.0 mi East 8.1 mph - N/A   Partly Cloudy
11:55 AM 75.9 °F - 55.9 °F 50% 30.15 in 10.0 mi ENE 9.2 mph - N/A   Partly Cloudy
1:55 PM 80.1 °F 79.9 °F 53.1 °F 39% 30.13 in 10.0 mi East 15.0 mph - N/A   Clear
2:55 PM 81.0 °F 80.5 °F 54.0 °F 39% 30.13 in 10.0 mi East 12.7 mph - N/A   Partly Cloudy
3:55 PM 81.0 °F 80.5 °F 54.0 °F 39% 30.11 in 10.0 mi ESE 11.5 mph 18.4 mph N/A   Partly Cloudy
4:55 PM 82.0 °F 81.3 °F 54.0 °F 38% 30.09 in 10.0 mi East 10.4 mph - N/A   Partly Cloudy
5:55 PM 81.0 °F 80.4 °F 53.1 °F 38% 30.10 in 10.0 mi East 10.4 mph - N/A   Partly Cloudy
6:55 PM 80.1 °F 80.0 °F 54.0 °F 40% 30.09 in 10.0 mi East 10.4 mph - N/A   Mostly Cloudy
7:55 PM 78.1 °F - 57.0 °F 48% 30.09 in 10.0 mi East 5.8 mph - N/A   Mostly Cloudy
8:55 PM 73.9 °F - 57.0 °F 55% 30.10 in 10.0 mi ENE 3.5 mph - N/A   Mostly Cloudy
9:55 PM 71.1 °F - 57.0 °F 61% 30.11 in 10.0 mi ENE 4.6 mph - N/A   Mostly Cloudy
10:55 PM 69.1 °F - 57.9 °F 68% 30.10 in 10.0 mi ENE 6.9 mph - N/A   Scattered Clouds
11:55 PM 68.0 °F - 57.9 °F 70% 30.10 in 10.0 mi ENE 6.9 mph - N/A   Clear